Regional Weather Roundup
Issued by NWS Kansas City/Pleasant Hill, MO

Home | Current Version | Previous Version | Graphics & Text | Print | Product List | Glossary Off
Versions: 1 2 3 4 5 6 7 8 9 10 11 12 13 14 15 16 17 18 19 20 21 22 23 24 25 26 27 28

000
ASUS43 KEAX 211910
RWREAX

WEATHER ROUNDUP FOR EASTERN KANSAS AND NORTHWEST MISSOURI
NATIONAL WEATHER SERVICE KANSAS CITY/PLEASANT HILL MO
200 PM CDT MON AUG 21 2017

KSZ040-057-103>105-MOZ028-029-037-043-212000-
...KANSAS CITY METROPOLITAN AREA...

CITY           SKY/WX    TMP DP  RH WIND       PRES   REMARKS
K.C. INTL      TSTM      73  72  96 NE9       30.06R VSB 1/4
K.C. DOWNTOWN  CLOUDY    81  75  82 SE6       30.01F
LEES SUMMIT    MOSUNNY   78  73  84 E9        30.04F
OLATHE - IXD   CLOUDY    82  76  81 SE10      30.02F
OLATHE - OJC   CLOUDY    79  76  90 SE8       30.03F
LAWRENCE       LGT RAIN  77  76  96 NE7       30.00F FOG

$$

MOZ001>008-011>017-020>025-030>033-038>040-044>046-053-054-212000-
...NORTHERN AND CENTRAL MISSOURI...

CITY           SKY/WX    TMP DP  RH WIND       PRES   REMARKS
ST. JOSEPH     MOSUNNY   76  73  91 S6        30.01F
WARRENSBURG    SUNNY     81  72  74 NE8       30.05F
WHITEMAN AFB   MOSUNNY   81  79  93 NE6       30.05F HX  91
CLINTON        SUNNY     84  77  79 S5        30.06S HX  94
SEDALIA        CLOUDY    84  78  82 N6        30.08F HX  95
WARSAW         NOT AVBL
CHILLICOTHE      N/A     74  73  97 E3        30.03F
KIRKSVILLE     LGT RAIN  71  32  23 E12       30.05F

$$

MOZ041-047>049-056>058-063>065-088>090-097-212000-
...EASTERN AND SOUTHERN MISSOURI...

CITY           SKY/WX    TMP DP  RH WIND       PRES   REMARKS
ST. LOUIS INTL PTSUNNY   91  75  59 VRB7      30.06F HX 101
SPIRIT OF STL  SUNNY     88  78  72 W3        30.05S HX 101
COLUMBIA       MOSUNNY   87  75  67 W5        30.08F HX  96
JEFFERSON CITY MOSUNNY   89  77  67 SW6       30.05F HAZE    HX 101
ROLLA          SUNNY     86  75  69 S6        30.11F HX  95
OSAGE BEACH    SUNNY     86  75  69 S6        30.09S HX  95
SPRINGFIELD    SUNNY     84  75  74 S7        30.10F HX  92
BRANSON        MOSUNNY   82  73  74 S3        30.12F
JOPLIN         SUNNY     88  76  67 S10       30.08S HX  99
WEST PLAINS    SUNNY     85  72  65 S6        30.14F HX  91

$$

IAZ060-094-KSZ022-034>040-054-083-096-NEZ052-066-093-212000-
...KANSAS...SOUTHEAST NEBRASKA AND IOWA...

CITY           SKY/WX    TMP DP  RH WIND       PRES   REMARKS
TOPEKA         MOSUNNY   82  78  88 E8        30.00F HX  91
MANHATTAN      LGT RAIN  79  71  76 CALM      29.98F
EMPORIA        CLOUDY    86  74  67 S12       30.01S HX  94
CHANUTE        SUNNY     87  75  67 S9        30.04F HX  96
WICHITA        PTSUNNY   89  72  56 S15       30.00F HX  96
OMAHA          CLOUDY    78  68  71 S25       29.95F
LINCOLN        CLOUDY    80  73  79 SE15      29.95S
FALLS CITY     CLOUDY    80  75  84 S12       29.98S
LAMONI         CLOUDY    76  69  79 S12       30.02F
DES MOINES     CLOUDY    75  68  78 S10       29.97F

$$





USA.gov is the U.S. government's official web portal to all federal, state and local government web resources and services.